Weather History for Wahoo, NE

Change the Weather History Date:

Tuesday, July 2, 2013

  Actual Average Record
Temperature  
Mean Temperature 70 °F -  
Max Temperature 84 °F 87 °F 101 °F (1974)
Min Temperature 58 °F 63 °F 51 °F (1968)
Cooling Degree Days 6    
Growing Degree Days 20 (Base 50)    
Moisture  
Dew Point 57 °F    
Average Humidity 70    
Maximum Humidity 92    
Minimum Humidity 34    
Precipitation  
Precipitation 0.74 in - - ()
Sea Level Pressure  
Sea Level Pressure 30.13 in    
Wind  
Wind Speed 3 mph (West)    
Max Wind Speed 10 mph    
Max Gust Speed 22 mph    
Visibility 9 miles    
Events Rain    
Averages and records for this station are not official NWS values.
T = Trace of Precipitation, MM = Missing Value Source: NWS Daily Summary

Daily Weather History Graph

Daily Weather History Graph

Search for Another Location

Airport:

Trip Planner

Search our weather history database for the weather conditions in past years. The results will help you decide how hot, cold, wet, or windy it might be!

Date:

Astronomy

Jul. 02, 2013 Rise Set
Actual Time 5:57 AM CDT 9:02 PM CDT
Civil Twilight 5:24 AM CDT 9:36 PM CDT
Nautical Twilight 4:41 AM CDT 10:19 PM CDT
Astronomical Twilight 3:50 AM CDT 11:09 PM CDT
Moon 2:02 AM CDT 4:16 PM CDT
Length of Visible Light 16h 12m
Length of Day
15h 05m
Waning Crescent, 26% of the Moon is Illuminated
Jul 2
Waning Crescent
Jul 8
New
Jul 15
First Quarter
Jul 22
Full
Jul 29
Last Quarter

Hourly Weather History & Observations

Time (CDT) Temp. Heat Index Dew Point Humidity Pressure Visibility Wind Dir Wind Speed Gust Speed Precip Events Conditions
12:15 AM 63.1 °F - 55.9 °F 77% 30.15 in 10.0 mi North 6.9 mph - N/A   Scattered Clouds
12:35 AM 62.8 °F - 55.8 °F 78% 30.15 in 10.0 mi North 6.9 mph - N/A   Clear
12:55 AM 62.1 °F - 55.8 °F 80% 30.15 in 10.0 mi NNW 3.5 mph - N/A   Clear
1:15 AM 61.7 °F - 55.6 °F 80% 30.16 in 10.0 mi North 4.6 mph - N/A   Scattered Clouds
1:35 AM 61.7 °F - 55.6 °F 80% 30.15 in 10.0 mi NNW 3.5 mph - N/A   Clear
1:55 AM 61.9 °F - 55.4 °F 79% 30.16 in 10.0 mi Calm Calm - N/A   Clear
2:15 AM 61.2 °F - 55.4 °F 81% 30.15 in 10.0 mi Calm Calm - N/A   Clear
2:35 AM 60.6 °F - 55.4 °F 83% 30.15 in 10.0 mi Calm Calm - N/A   Clear
2:55 AM 60.3 °F - 54.9 °F 82% 30.15 in 10.0 mi Calm Calm - N/A   Clear
3:15 AM 59.5 °F - 54.9 °F 84% 30.15 in 10.0 mi Calm Calm - N/A   Clear
3:35 AM 60.3 °F - 54.5 °F 81% 30.15 in 10.0 mi NW 3.5 mph - N/A   Scattered Clouds
3:55 AM 58.8 °F - 54.7 °F 86% 30.15 in 10.0 mi NW 4.6 mph - N/A   Mostly Cloudy
4:15 AM 59.9 °F - 55.4 °F 85% 30.15 in 10.0 mi NW 3.5 mph - N/A   Mostly Cloudy
4:35 AM 60.8 °F - 55.0 °F 81% 30.16 in 10.0 mi NNW 3.5 mph - N/A   Mostly Cloudy
4:55 AM 59.7 °F - 54.9 °F 84% 30.16 in 10.0 mi NNW 3.5 mph - N/A   Mostly Cloudy
5:15 AM 59.2 °F - 54.7 °F 85% 30.16 in 10.0 mi NW 3.5 mph - N/A   Scattered Clouds
5:35 AM 59.5 °F - 54.5 °F 83% 30.16 in 10.0 mi Calm Calm - N/A   Mostly Cloudy
5:55 AM 58.6 °F - 54.5 °F 86% 30.16 in 10.0 mi Calm Calm - N/A   Mostly Cloudy
6:15 AM 58.5 °F - 54.7 °F 87% 30.17 in 7.0 mi NW 3.5 mph - N/A   Mostly Cloudy
6:35 AM 58.3 °F - 54.5 °F 87% 30.17 in 10.0 mi NW 3.5 mph - N/A   Scattered Clouds
6:55 AM 59.2 °F - 54.9 °F 86% 30.17 in 7.0 mi Calm Calm - N/A   Scattered Clouds
7:15 AM 61.0 °F - 55.9 °F 83% 30.17 in 7.0 mi Calm Calm - N/A   Mostly Cloudy
7:35 AM 62.8 °F - 56.5 °F 80% 30.17 in 7.0 mi Calm Calm - N/A   Scattered Clouds
7:55 AM 64.2 °F - 56.5 °F 76% 30.17 in 10.0 mi Calm Calm - N/A   Clear
8:15 AM 65.7 °F - 57.7 °F 76% 30.17 in 10.0 mi Calm Calm - N/A   Clear
8:35 AM 68.5 °F - 56.3 °F 65% 30.17 in 10.0 mi Calm Calm - N/A   Clear
8:55 AM 70.2 °F - 56.8 °F 63% 30.17 in 10.0 mi Calm Calm - N/A   Clear
9:15 AM 72.1 °F - 55.4 °F 56% 30.17 in 10.0 mi Calm Calm - N/A   Clear
9:35 AM 73.4 °F - 54.9 °F 52% 30.17 in 10.0 mi SSW 3.5 mph - N/A   Clear
9:55 AM 74.5 °F - 55.8 °F 52% 30.17 in 10.0 mi SSW 3.5 mph - N/A   Scattered Clouds
10:15 AM 75.0 °F - 55.2 °F 50% 30.17 in 10.0 mi South 3.5 mph - N/A   Scattered Clouds
10:35 AM 75.2 °F - 53.8 °F 47% 30.17 in 10.0 mi Calm Calm - N/A   Scattered Clouds
11:55 AM 78.1 °F - 55.6 °F 46% 30.16 in 10.0 mi South 6.9 mph - N/A   Scattered Clouds
12:15 PM 78.6 °F - 54.9 °F 44% 30.16 in 10.0 mi Calm Calm - N/A   Clear
12:35 PM 79.2 °F - 53.6 °F 41% 30.16 in 10.0 mi South 4.6 mph - N/A   Clear
12:55 PM 80.8 °F 80.3 °F 53.1 °F 38% 30.15 in 10.0 mi North - - N/A   Clear
1:15 PM 80.8 °F 80.4 °F 53.4 °F 39% 30.15 in 10.0 mi North - - N/A   Clear
1:35 PM 81.5 °F 80.9 °F 54.5 °F 39% 30.14 in 10.0 mi South 4.6 mph - N/A   Clear
1:55 PM 81.3 °F - 52.5 °F 37% 30.13 in 10.0 mi Calm Calm - N/A   Clear
2:15 PM 82.2 °F - 52.3 °F 35% 30.13 in 10.0 mi South 4.6 mph - N/A   Clear
2:35 PM 83.3 °F 82.1 °F 53.8 °F 36% 30.12 in 10.0 mi SW 8.1 mph - N/A   Scattered Clouds
2:55 PM 83.3 °F - 52.3 °F 34% 30.11 in 10.0 mi WSW 6.9 mph - N/A   Mostly Cloudy
3:15 PM 81.3 °F - 52.0 °F 36% 30.11 in 10.0 mi SE 3.5 mph - N/A   Overcast
3:35 PM 82.0 °F 81.5 °F 55.6 °F 40% 30.11 in 10.0 mi SSW 8.1 mph - N/A   Mostly Cloudy
3:55 PM 82.0 °F - 52.5 °F 36% 30.10 in 10.0 mi SSW 8.1 mph - N/A   Scattered Clouds
4:15 PM 80.4 °F 80.2 °F 53.8 °F 40% 30.10 in 10.0 mi SSW 4.6 mph - N/A   Clear
4:55 PM 67.6 °F - 58.1 °F 71% 30.13 in 0.8 mi SSW 9.2 mph 21.9 mph 0.41 in Rain Light Rain
5:15 PM 68.0 °F - 60.6 °F 77% 30.12 in 10.0 mi SSW 10.4 mph - 0.01 in   Scattered Clouds
5:35 PM 69.8 °F - 61.3 °F 74% 30.11 in 10.0 mi Calm Calm - 0.01 in   Scattered Clouds
5:55 PM 70.7 °F - 60.1 °F 69% 30.10 in 2.0 mi Calm Calm - 0.07 in Rain Light Rain
6:15 PM 66.4 °F - 56.3 °F 70% 30.12 in 2.5 mi ENE 4.6 mph - 0.21 in Rain Heavy Rain
6:35 PM 67.5 °F - 60.8 °F 79% 30.10 in 10.0 mi SW 4.6 mph - 0.26 in   Overcast
6:55 PM 69.8 °F - 62.1 °F 76% 30.09 in 10.0 mi Calm Calm - 0.26 in   Mostly Cloudy
7:15 PM 70.7 °F - 62.1 °F 74% 30.08 in 10.0 mi West 3.5 mph - N/A   Scattered Clouds
7:35 PM 71.8 °F - 63.5 °F 75% 30.07 in 10.0 mi West 3.5 mph - N/A   Clear
8:15 PM 70.9 °F - 65.3 °F 82% 30.08 in 10.0 mi NNW 3.5 mph - N/A   Clear
8:35 PM 70.5 °F - 64.6 °F 81% 30.08 in 10.0 mi NW 3.5 mph - N/A   Clear
8:55 PM 69.6 °F - 64.4 °F 83% 30.08 in 10.0 mi NNW 3.5 mph - N/A   Clear
9:15 PM 69.6 °F - 63.7 °F 81% 30.08 in 10.0 mi Calm Calm - N/A   Clear
9:35 PM 68.9 °F - 64.2 °F 85% 30.08 in 10.0 mi NNW 3.5 mph - N/A   Clear
9:55 PM 68.4 °F - 64.2 °F 87% 30.09 in 10.0 mi Calm Calm - N/A   Clear
10:15 PM 68.0 °F - 63.5 °F 85% 30.09 in 10.0 mi Calm Calm - N/A   Clear
10:35 PM 66.4 °F - 63.0 °F 89% 30.09 in 10.0 mi SSW 3.5 mph - N/A   Clear
10:55 PM 66.7 °F - 62.8 °F 87% 30.09 in 10.0 mi SW 3.5 mph - N/A   Clear
11:15 PM 65.8 °F - 63.5 °F 92% 30.09 in 7.0 mi Calm Calm - N/A   Clear
11:35 PM 66.2 °F - 63.5 °F 91% 30.09 in 10.0 mi Calm Calm - N/A   Clear
11:55 PM 66.6 °F - 64.0 °F 92% 30.09 in 10.0 mi Calm Calm - N/A   Clear